Regional Weather Roundup
Issued by NWS Bismarck, ND

Home | Current Version | Previous Version | Text Only | Print | Product List | Glossary On
Versions: 1 2 3 4 5 6 7 8 9 10 11 12 13 14 15 16 17 18 19 20 21 22 23 24 25 26 27 28 29 30 31 32 33 34 35 36 37 38 39 40 41 42 43 44 45 46 47 48 49 50
000
ASUS43 KBIS 280510
RWRBIS

NWR BROADCAST TEXT
NATIONAL WEATHER SERVICE BISMARCK ND
1200 AM CDT SUN MAY 28 2017

NOTE: "FAIR" INDICATES FEW OR NO CLOUDS BELOW 12,000 FEET WITH NO
SIGNIFICANT WEATHER AND/OR OBSTRUCTIONS TO VISIBILITY.


CITY           SKY/WX    TMP DP  RH WIND       PRES   REMARKS
WILLISTON      FAIR      52  35  52 CALM      29.91R
MINOT          FAIR      51  43  74 SW7       29.84R
MINOT AFB      FAIR      46  45  97 W6        29.83R
BISMARCK       FAIR      51  44  77 CALM      29.87S
DICKINSON      FAIR      50  40  68 W10       29.90R
GARRISON         N/A     43  39  86 SW5       29.84S
HETTINGER ARPT FAIR      47  39  74 NW6       29.95S
JAMESTOWN      FAIR      51  46  83 NW10      29.81R
HAZEN          FAIR      45  41  87 W3        29.88R
LINTON         FAIR      48  48 100 CALM      29.89S
MANDAN         FAIR      52  45  76 SW7       29.87S
STANLEY        FAIR      52  43  71 NW8       29.90R
TIOGA          FAIR      52  39  62 N9        29.90S
WATFORD CITY   FAIR      52  36  54 CALM      29.90R
$$

CITY           SKY/WX    TMP DP  RH WIND       PRES   REMARKS
GRAND FORKS    CLOUDY    53  49  86 W10       29.74R
GRAND FORKS AF CLOUDY    52  47  84 NW12      29.75R
DEVILS LAKE    FAIR      49  46  90 CALM      29.80S
FARGO          FAIR      54  46  74 W8        29.76R
CAVALIER       FAIR      52  48  87 W7        29.74S
GRAFTON        MOCLDY    54  50  87 W12G17    29.74F
GWINNER        CLEAR     54  48  82 MISG      29.80S
LANGDON        MOCLDY    50  48  93 W7        29.77S
ROLLA          MOCLDY    50  43  76 W10       29.80S
$$

CITY           SKY/WX    TMP DP  RH WIND       PRES   REMARKS
ABERDEEN       FAIR      53  46  77 NW8       29.84R
MOBRIDGE       FAIR      47  42  83 CALM      29.87F
BUFFALO          N/A     51  44  77 W9        29.94R
RAPID CITY     FAIR      52  40  63 W9        30.05R
GLASGOW        FAIR      63  38  39 NW10      30.00R
SIDNEY         FAIR      54  39  57 W14       29.93R
WOLF POINT     FAIR      62  38  40 NW12      29.97R
GLENDIVE       FAIR      61  38  42 NW10      29.97R
MILES CITY     MOCLDY    60  34  37 W9        30.00R
BAKER          CLOUDY    55  40  56 NW7       29.99R
$$

CITY           SKY/WX    TMP DP  RH WIND       PRES   REMARKS
BILLINGS       MOCLDY    63  38  39 W12       30.12R
GREAT FALLS    MOCLDY    53  41  63 W3        30.13R
REGINA         PTCLDY    48  34  57 NW7       29.92R
ESTEVAN        PTCLDY    48  43  81 NW7       29.88R
$$




USA.gov is the U.S. government's official web portal to all federal, state and local government web resources and services.